Location: Joplin, MO
(37.0842°N, 94.5133°W)
Time: 10:36:20
(UTC+02:00)

Transit 2A - Pass Details

Date: 03 April 2023
Orbit: 591 x 964 km, 66.7° (Epoch: 03 June)

Event Time Altitude Azimuth Distance (km) Brightness Sun altitude
Exits shadow 10:05:22 19° 62° (ENE) 1,931 8.5 -41.2°
Drops below altitude 10° 10:07:19 10° 49° (NE) 2,516 9.3 -41.0°
Sets 10:10:12 0° 39° (NE) 3,515 10.3 -40.6°
